Home > Weather > Linden > Past weeks

Flag for Guyana Weather for the Past 2 Weeks in Linden, Guyana

Now
77 °F

Broken clouds.


Feels Like: 78 °F
Forecast: 74 / 85 °F
Wind: No wind

Location: Georgetown/Cheddi Jagan International Airport

Current Time: May 2, 2016 at 9:24:01 AM

Latest Report: May 2, 2016 at 9:00 AM


Visibility: N/A

Pressure: 29.98 "Hg

Humidity: 89%

Dew Point: 73 °F

Location of LindenLocation

Historic Weather in Linden — Graph

°F

Linden Temperature Yesterday

Maximum temperature yesterday: 86 °F (at 1:00 PM)
Minimum temperature yesterday: 73 °F (at 5:00 AM)
Average temperature yesterday: 78 °F

High & Low Weather Summary for the Past Weeks

 TemperatureHumidityPressure
High91 °F (Apr 20, 11:00 AM)100% (Apr 18, 12:00 AM)29.98 "Hg (Apr 18, 12:00 AM)
Low73 °F (Apr 18, 6:00 AM)59% (Apr 24, 2:00 PM)29.74 "Hg (Apr 25, 4:00 PM)
Average80 °F88%29.87 "Hg
* Reported Apr 17 7:00 AM — May 2 7:00 AM, Linden, Weather by CustomWeather, © 2016

Note: Actual official high and low records may vary slightly from our data, if they occured in-between our weather recording intervals... More about our weather records

Advertising

Linden Weather History for the Previous 24 Hours

Scroll right to see more
 ConditionsComfort  
Time TempWeatherWind HumidityBarometerVisibility
7:00 AM
Mon, May 2
73 °FLight rain. Mostly cloudy.No wind100%29.92 "Hg6 mi
6:00 AM73 °FLight rain. Mostly cloudy.5 mph100%29.92 "Hg5 mi
5:00 AM75 °FSprinkles. Passing clouds.9 mph100%29.92 "Hg5 mi
4:00 AM75 °FPassing clouds.5 mph100%29.89 "Hg5 mi
3:00 AM75 °FSprinkles. Passing clouds.No wind100%29.89 "Hg6 mi
1:00 AM77 °FSprinkles. Passing clouds.5 mph94%29.89 "Hg6 mi
12:00 AM77 °FPassing clouds.No wind94%29.92 "HgN/A
11:00 PM
Sun, May 1
77 °FPassing clouds.5 mph94%29.92 "HgN/A
10:00 PM77 °FPartly cloudy.5 mph94%29.92 "HgN/A
9:00 PM77 °FPartly cloudy.5 mph94%29.92 "HgN/A
8:00 PM77 °FPartly cloudy.5 mph94%29.89 "HgN/A
7:00 PM77 °FPartly cloudy.5 mph94%29.89 "HgN/A
6:00 PM79 °FPartly cloudy.9 mph89%29.86 "HgN/A
5:00 PM82 °FBroken clouds.5 mph84%29.83 "HgN/A
4:00 PM81 °FBroken clouds.5 mph89%29.83 "HgN/A
3:00 PM82 °FRain showers. Broken clouds.5 mph79%29.83 "Hg6 mi
2:00 PM86 °FPartly sunny.7 mph70%29.86 "HgN/A
1:00 PM86 °FPartly sunny.5 mph70%29.89 "HgN/A
12:00 PM84 °FPartly sunny.5 mph74%29.89 "HgN/A
11:00 AM84 °FBroken clouds.2 mph74%29.92 "HgN/A
10:00 AM81 °FMore clouds than sun.2 mph84%29.95 "HgN/A
9:00 AM77 °FMore clouds than sun.2 mph94%29.95 "HgN/A
Weather by CustomWeather, © 2016

See weather overviewHow to use our weather pages